Home > Weather > Zárate > Past weeks

Flag for Argentina Weather for the Past 2 Weeks in Zárate, Buenos Aires, Argentina

Now
84 °F

Passing clouds.


Feels Like: 88 °F
Forecast: N/A
Wind: 10 mph from Southwest

Location: Buenos Aires Airport

Current Time: Feb 13, 2016 at 8:59:49 PM

Latest Report: Feb 13, 2016 at 8:00 PM


Visibility: N/A

Pressure: 29.74 "Hg

Humidity: 62%

Dew point: 70 °F

Location of ZárateLocation

Historic Weather in Zárate — Graph

°F

Zárate Temperature Yesterday

Maximum temperature yesterday: 93 °F (at 6:00 PM)
Minimum temperature yesterday: 79 °F (at 7:00 AM)
Average temperature yesterday: 85 °F

High & Low Weather Summary for the Past Weeks

 TemperatureHumidityPressure
High95 °F (Feb 9, 5:00 PM)94% (Feb 7, 9:00 PM)30.18 "Hg (Feb 7, 9:00 PM)
Low63 °F (Feb 1, 6:00 AM)24% (Jan 31, 6:00 PM)29.59 "Hg (Feb 12, 7:00 PM)
Average78 °F67%29.92 "Hg
* Reported Jan 29 7:00 PM — Feb 13 7:00 PM, Zárate, Weather by CustomWeather, © 2016

Note: Actual official high and low records may vary slightly from our data, if they occured in-between our weather recording intervals... More about our weather records

Advertising

Zárate Weather History for the Previous 24 Hours

 ConditionsComfort  
Time TempWeatherWind HumidityBarometerVisibility
7:00 PM
Sat, Feb 13
86 °FPassing clouds.12 mph59%29.71 "HgN/A
6:00 PM88 °FScattered clouds.13 mph52%29.71 "HgN/A
5:00 PM88 °FPassing clouds.8 mph59%29.68 "HgN/A
4:00 PM86 °FScattered clouds.7 mph62%29.71 "HgN/A
3:00 PM82 °FBroken clouds.7 mph70%29.71 "HgN/A
2:00 PM81 °FBroken clouds.13 mph74%29.74 "HgN/A
1:00 PM79 °FPartly sunny.8 mph79%29.74 "HgN/A
12:00 PM79 °FBroken clouds.14 mph79%29.74 "HgN/A
11:00 AM79 °FPartly sunny.7 mph79%29.71 "HgN/A
10:00 AM79 °FBroken clouds.7 mph74%29.68 "HgN/A
9:00 AM77 °FBroken clouds.6 mph83%29.68 "HgN/A
8:00 AM77 °FBroken clouds.8 mph89%29.65 "HgN/A
7:00 AM77 °FCloudy.6 mph94%29.65 "HgN/A
6:00 AM77 °FMore clouds than sun.12 mph83%29.65 "HgN/A
5:00 AM79 °FMostly cloudy.7 mph79%29.62 "Hg6 mi
4:00 AM79 °FMostly cloudy.12 mph79%29.65 "Hg6 mi
3:00 AM75 °FMostly cloudy.14 mph89%29.59 "Hg6 mi
2:00 AM75 °FMostly cloudy.5 mph89%29.68 "Hg6 mi
1:00 AM75 °FThunderstorms. Mostly cloudy.26 mph94%29.71 "Hg1 mi
12:00 AM82 °FThunderstorms. Mostly cloudy.24 mph70%29.62 "Hg3 mi
11:00 PM
Fri, Feb 12
82 °FMostly cloudy.14 mph74%29.65 "Hg6 mi
10:00 PM84 °FMostly cloudy.10 mph79%29.68 "Hg4 mi
9:00 PM86 °FMostly cloudy.13 mph75%29.62 "HgN/A
8:00 PM88 °FMostly cloudy.7 mph66%29.62 "HgN/A
Weather by CustomWeather, © 2016

See weather overviewHow to use our weather pages